TimeEDT,TemperatureF,Dew PointF,Humidity,Sea Level PressureIn,VisibilityMPH,Wind Direction,Wind SpeedMPH,Gust SpeedMPH,PrecipitationIn,Events,Conditions,WindDirDegrees,DateUTC
12:51 AM,64.9,57.9,78,29.83,10.0,NE,3.5,-,N/A,,Clear,40,2013-06-13 04:51:00
1:51 AM,64.0,57.9,80,29.81,10.0,NE,3.5,-,N/A,,Clear,40,2013-06-13 05:51:00
2:51 AM,64.9,57.9,78,29.80,10.0,Calm,Calm,-,N/A,,Overcast,0,2013-06-13 06:51:00
3:51 AM,66.9,57.0,70,29.79,7.0,SSE,5.8,-,0.01,Rain,Rain,160,2013-06-13 07:51:00
4:51 AM,64.0,59.0,84,29.78,8.0,Calm,Calm,-,0.04,Rain,Light Rain,0,2013-06-13 08:51:00
5:51 AM,62.1,60.1,93,29.75,10.0,NNE,3.5,-,0.06,Rain,Light Rain,30,2013-06-13 09:51:00
6:24 AM,62.6,60.8,94,29.74,1.8,East,4.6,-,0.06,Rain,Heavy Rain,90,2013-06-13 10:24:00
6:32 AM,62.6,59.0,88,29.70,3.0,East,11.5,20.7,0.09,Rain,Rain,100,2013-06-13 10:32:00
6:51 AM,63.0,57.9,84,29.71,10.0,Calm,Calm,-,0.11,Rain,Light Rain,0,2013-06-13 10:51:00
7:51 AM,63.0,59.0,87,29.72,10.0,NE,6.9,-,0.00,,Overcast,50,2013-06-13 11:51:00
8:51 AM,62.1,59.0,90,29.69,3.0,ENE,8.1,-,0.11,Rain,Rain,60,2013-06-13 12:51:00
9:17 AM,60.8,59.0,94,29.68,2.5,NE,6.9,-,0.10,Rain,Rain,50,2013-06-13 13:17:00
9:25 AM,60.8,59.0,94,29.70,3.0,Calm,Calm,-,0.12,Rain,Rain,0,2013-06-13 13:25:00
9:29 AM,60.8,59.0,94,29.68,1.8,East,9.2,-,0.14,Rain,Heavy Rain,90,2013-06-13 13:29:00
9:51 AM,61.0,59.0,93,29.67,0.8,ESE,8.1,-,0.44,Rain,Heavy Rain,120,2013-06-13 13:51:00
10:02 AM,60.8,60.8,100,29.64,1.8,East,12.7,-,0.24,Rain,Light Rain,100,2013-06-13 14:02:00
10:04 AM,60.8,60.8,100,29.63,3.0,East,10.4,-,0.25,Rain,Light Rain,100,2013-06-13 14:04:00
10:11 AM,60.8,60.8,100,29.63,8.0,East,9.2,-,0.25,Rain,Light Rain,90,2013-06-13 14:11:00
10:17 AM,62.6,60.8,94,29.62,10.0,East,10.4,-,0.25,Rain,Light Rain,100,2013-06-13 14:17:00
10:40 AM,64.4,60.8,88,29.62,10.0,East,10.4,-,0.25,,Mostly Cloudy,100,2013-06-13 14:40:00
10:51 AM,64.0,60.1,87,29.62,10.0,ESE,10.4,-,0.25,,Overcast,110,2013-06-13 14:51:00
11:51 AM,66.0,61.0,84,29.57,10.0,East,9.2,-,N/A,,Overcast,100,2013-06-13 15:51:00
12:51 PM,66.9,62.1,84,29.56,10.0,ESE,6.9,-,N/A,,Overcast,110,2013-06-13 16:51:00
1:51 PM,68.0,63.0,84,29.53,10.0,East,11.5,-,N/A,,Overcast,90,2013-06-13 17:51:00
1:59 PM,68.0,62.6,83,29.54,10.0,ESE,6.9,-,N/A,,Overcast,110,2013-06-13 17:59:00
2:27 PM,69.8,64.4,83,29.52,10.0,East,12.7,-,N/A,,Overcast,90,2013-06-13 18:27:00
2:51 PM,71.1,64.0,78,29.50,10.0,ENE,11.5,-,N/A,,Overcast,70,2013-06-13 18:51:00
3:11 PM,73.4,64.4,73,29.51,10.0,ESE,10.4,-,N/A,,Scattered Clouds,110,2013-06-13 19:11:00
3:18 PM,71.6,64.4,78,29.50,10.0,ENE,13.8,-,N/A,,Mostly Cloudy,70,2013-06-13 19:18:00
3:51 PM,70.0,64.0,81,29.48,10.0,East,10.4,-,N/A,,Overcast,100,2013-06-13 19:51:00
4:51 PM,66.0,64.0,93,29.47,2.0,North,8.1,-,0.03,Rain,Heavy Rain,10,2013-06-13 20:51:00
4:59 PM,64.4,62.6,94,29.47,1.0,NE,17.3,25.3,0.08,Rain,Heavy Rain,40,2013-06-13 20:59:00
5:07 PM,64.4,62.6,94,29.47,0.8,North,8.1,17.3,0.27,Rain,Heavy Rain,10,2013-06-13 21:07:00
5:11 PM,64.4,62.6,94,29.47,1.0,NE,4.6,17.3,0.34,Rain,Heavy Rain,50,2013-06-13 21:11:00
5:20 PM,64.4,62.6,94,29.47,3.0,NE,12.7,-,0.39,Rain,Light Rain,50,2013-06-13 21:20:00
5:30 PM,64.4,62.6,94,29.46,10.0,NE,9.2,-,0.39,,Overcast,50,2013-06-13 21:30:00
5:51 PM,66.0,63.0,90,29.45,10.0,ENE,10.4,-,0.39,,Mostly Cloudy,60,2013-06-13 21:51:00
6:51 PM,64.9,61.0,87,29.46,10.0,NE,12.7,-,0.00,,Scattered Clouds,40,2013-06-13 22:51:00
7:51 PM,63.0,59.0,87,29.48,10.0,NE,15.0,-,N/A,,Overcast,50,2013-06-13 23:51:00
8:16 PM,62.6,57.2,82,29.49,9.0,NE,10.4,-,0.00,Rain,Light Rain,50,2013-06-14 00:16:00
8:40 PM,60.8,57.2,88,29.49,9.0,NE,15.0,-,0.00,Rain,Light Rain,50,2013-06-14 00:40:00
8:51 PM,60.1,57.0,90,29.50,8.0,NE,12.7,-,0.00,Rain,Light Rain,50,2013-06-14 00:51:00
9:32 PM,59.0,57.2,94,29.51,3.0,NE,12.7,-,0.03,Rain,Light Rain,40,2013-06-14 01:32:00
9:51 PM,59.0,57.0,93,29.52,3.0,NNE,9.2,-,0.05,Rain,Light Rain,30,2013-06-14 01:51:00
10:01 PM,59.0,57.2,94,29.53,7.0,NNE,11.5,-,0.01,Rain,Light Rain,30,2013-06-14 02:01:00
10:12 PM,59.0,55.4,88,29.54,8.0,NNE,10.4,-,0.01,Rain,Light Rain,30,2013-06-14 02:12:00
10:36 PM,59.0,57.2,94,29.55,3.0,North,5.8,-,0.04,Rain,Rain,360,2013-06-14 02:36:00
10:51 PM,57.9,55.9,93,29.55,5.0,NNE,11.5,-,0.06,Rain,Light Rain,20,2013-06-14 02:51:00
11:18 PM,57.2,55.4,94,29.56,7.0,North,5.8,-,0.02,Rain,Light Rain,10,2013-06-14 03:18:00
11:51 PM,57.0,55.0,93,29.57,10.0,North,8.1,-,0.04,Rain,Light Rain,10,2013-06-14 03:51:00
11:59 PM,57.2,53.6,88,29.57,10.0,NNE,9.2,-,0.01,Rain,Light Rain,20,2013-06-14 03:59:00